Regional Weather Roundup
Issued by NWS

Home | Current Version | Previous Version | Graphics & Text | Print | Product List | Glossary On
Versions: 1 2 3 4 5 6 7 8 9 10 11 12 13 14 15 16 17 18 19 20 21 22 23 24 25 26 27 28 29 30 31 32 33 34 35 36 37 38 39 40 41 42 43 44 45 46 47 48 49 50
634
ASUS43 KIND 281559
RWRIN

WEATHER ROUNDUP FOR INDIANA
NATIONAL WEATHER SERVICE INDIANAPOLIS IN
1200 PM EDT TUE MAR 28 2017

NOTE: "FAIR" INDICATES FEW OR NO CLOUDS BELOW 12,000 FEET WITH NO
SIGNIFICANT WEATHER AND/OR OBSTRUCTIONS TO VISIBILITY.

* - STATION DOES NOT REPORT WEATHER SUCH AS PRECIPITATION OR FOG.

+ - STATION NOT QUALITY CONTROLLED BY THE NATIONAL WEATHER SERVICE.
    USE DATA WITH CAUTION...ESPECIALLY DEWPOINT AND RELATIVE
    HUMIDITY OBSERVATIONS.

INZ001>003-010>013-019-020-281700-
NORTHWEST INDIANA

CITY           SKY/WX    TMP DP  RH WIND       PRES   REMARKS
GARY /AIRPORT/ CLOUDY    43  37  81 N17       30.12R
KNOX *+        CLOUDY    43  28  56 N10       30.09R
MONTICELLO +   CLOUDY    48  41  77 N8        30.07S
VALPARAISO     CLOUDY    43  39  87 N9        30.10R FOG

$$

LMZ046-743>745-281700-
SOUTHERN LAKE MICHIGAN

STATION/POSITION TIME  TEMP    WIND        PRES    WAVE
                       AIR SEA DIR/SP/G            HT
                 (UTC) (F)     (DEG/KT/KT) (MB)    (FT)
BURNS HARBOR     1530   38     350/ 10/ 12 1020.0R
MICHIGAN CITY    1510   38     360/ 13/ 15   N/A

$$

INZ004-005-014>016-021>024-281700-
NORTH CENTRAL INDIANA

CITY           SKY/WX    TMP DP  RH WIND       PRES   REMARKS
ELKHART        CLOUDY    45  41  87 N3        30.06S
GOSHEN         CLOUDY    46  41  82 N9        30.06R
PERU/GRISSOM   CLOUDY    50  45  81 N12       30.04R
SOUTH BEND     CLOUDY    43  40  89 N8        30.09R

$$

INZ006>009-017-018-025>027-281700-
NORTHEAST INDIANA

CITY           SKY/WX    TMP DP  RH WIND       PRES   REMARKS
ANGOLA *+      CLOUDY    45  32  61 N7        30.05R
FORT WAYNE     CLOUDY    50  44  80 N8        30.05R
KENDALLVILLE + CLOUDY    46  42  86 N9        30.06R

$$

INZ028-029-035-036-043>045-051>053-281700-
WEST CENTRAL INDIANA

CITY           SKY/WX    TMP DP  RH WIND       PRES   REMARKS
CRAWFORDSVL +  PTSUNNY   47  47 100 NE9       30.07R
GREENCASTLE +  CLOUDY    52  45  76 NE9       30.06S
LAFAYETTE      CLOUDY    48  43  82 N9        30.09R
TERRE HAUTE    PTSUNNY   55  46  71 NE8       30.05S

$$

INZ030>032-037>040-046>048-054>057-064-065-281700-
CENTRAL INDIANA

CITY           SKY/WX    TMP DP  RH WIND       PRES   REMARKS
COLUMBUS       CLOUDY    54  54 100 N9        30.03R
INDIANAPOLIS   PTSUNNY   55  46  71 N10       30.04R
-EAGLE CREEK   PTSUNNY   56  45  66 N9        30.03R
KOKOMO +       CLOUDY    51  45  79 N9        30.06S
SHELBYVILLE    CLOUDY    55  49  80 N12       30.02R

$$

INZ033-034-041-042-049-050-058-059-281700-
EAST CENTRAL INDIANA

CITY           SKY/WX    TMP DP  RH WIND       PRES   REMARKS
MUNCIE         CLOUDY    51  47  86 N12       30.03R FOG
RICHMOND +     CLOUDY    50  50 100 N10       30.01R FOG

$$

INZ060-061-067>069-081>083-085>088-281700-
SOUTHWEST INDIANA

CITY           SKY/WX    TMP DP  RH WIND       PRES   REMARKS
EVANSVILLE     CLOUDY    56  50  80 N6        30.05R
HUNTINGBURG *+ CLOUDY    56  53  90 NW8       30.04R FOG

$$

INZ062-063-066-070>080-084-089>092-281700-
SOUTH CENTRAL AND SOUTHEAST INDIANA

CITY           SKY/WX    TMP DP  RH WIND       PRES   REMARKS
BLOOMINGTON    CLOUDY    55  49  80 NE8       30.03R
MADISON *+     CLOUDY    59  52  77 NW8       30.02S
SEYMOUR +      CLOUDY    57  52  82 N12       30.02R

$$





USA.gov is the U.S. government's official web portal to all federal, state and local government web resources and services.